STARLINK-34740 (64941 NORAD) Tracking and Keplerian Element Data

This shows tracking and keplerian element data for the satellite.

Feedback or suggestion? Click here.




ElementValue
Catalog64941
NameSTARLINK-34740
Epoch Orbit2333
Epoch Day354.17300953
Epoch Year2025
RAAN215.7507
Inclination97.6019
Eccentricity0.0002544
Argument of Perigee74.62
Mean Anonmoly285.5308
Mean Motion15.05651598
Decay Rate3.331E-05
L11 64941U 25158K 25354.17300953 .00003331 00000+0 23496-3 0 9998
L22 64941 97.6019 215.7507 0002544 74.6200 285.5308 15.05651598 23336



Live tracking and technical data element details for STARLINK-34740 (NORAD 64941). STARLINK-34740 can be tracked NOW for your location showing map with azimuth and elevation plus other details from your city location.







IsCatalogInMostPopularTable: catalog: 64941, numindb: 3
Update: records affected: 1



GetName: 64941 STARLINK-34740

Hit Count: updated at: Sun, 08 Feb 2026 09:07:26 GMT